Location: Tel Aviv
(32.0670°N, 34.7670°E)
Time: 05:27:51
(UTC+03:00)

Vanguard 2 - Pass Details

Date: 24 January 2022
Orbit: 552 x 2935 km, 32.9° (Epoch: 25 May)

Event Time Altitude Azimuth Distance (km) Brightness Sun altitude
Rises 05:19:22 0° 272° (W) 6,785 - -17.0°
Exits shadow 05:26:56 - 253° (WSW) 5,849 11.5 -15.4°
Reaches altitude 10° 05:28:57 10° 247° (WSW) 5,657 11.5 -15.0°
Maximum altitude 05:33:46 12° 230° (SW) 5,342 11.5 -14.0°
Drops below altitude 10° 05:38:19 10° 213° (SSW) 5,266 11.6 -13.1°
Sets 05:46:21 0° 185° (S) 5,722 12.1 -11.4°
